Location: ?????
(32.7281°N, 34.9563°E)
Time: 00:24:10
(UTC+00:00)

Cosmos 1745 Rocket - Pass Details

Date: 29 October 2020
Orbit: 953 x 997 km, 83.0° (Epoch: 25 November)

Event Time Altitude Azimuth Distance (km) Brightness Sun altitude
Rises 16:26:33 0° 352° (N) 3,696 7.1 -20.4°
Reaches altitude 10° 16:29:04 10° 351° (N) 2,750 6.4 -21.0°
Maximum altitude 16:35:22 79° 267° (W) 1,013 4.1 -22.3°
Drops below altitude 10° 16:41:42 10° 180° (S) 2,753 6.4 -23.6°
Sets 16:44:13 0° 179° (S) 3,700 7.0 -24.2°
